FW5987 Weather Reports


time (UTC)temp
C
wind
direction
speed
KPH
gust
KPH
rain 1hr
cm
rain 24hr
cm
rain mn
cm
humidity
%
barometer
mb
20260510054603 13 207 0.0 0.0 0.00 0.00 0.00 82 1011.3
20260510053012 13 207 0.0 3.2 0.00 0.00 0.00 81 1011.3
20260510051557 14 207 0.0 3.2 0.00 0.00 0.00 80 1011.4
20260510050006 14 207 0.0 1.6 0.00 0.00 0.00 79 1011.4
20260510044530 15 207 0.0 3.2 0.00 0.00 0.00 79 1011.4
20260510043046 15 207 0.0 3.2 0.00 0.00 0.00 78 1011.4
20260510041507 15 207 0.0 1.6 0.00 0.00 0.00 77 1011.4
20260510040038 15 207 0.0 1.6 0.00 0.00 0.00 76 1011.3
20260510034558 16 207 0.0 1.6 0.00 0.00 0.00 74 1011.3
20260510033033 16 207 0.0 0.0 0.00 0.00 0.00 72 1011.3
20260510031505 17 207 0.0 3.2 0.00 0.00 0.00 69 1011.1
20260510030030 18 207 1.6 4.8 0.00 0.00 0.00 68 1011.0
20260510024555 18 207 0.0 4.8 0.00 0.00 0.00 67 1010.9
20260510023016 18 207 0.0 4.8 0.00 0.00 0.00 65 1010.6
20260510021544 19 207 3.2 6.4 0.00 0.00 0.00 63 1010.4
20260510020058 20 207 0.0 3.2 0.00 0.00 0.00 62 1010.2
20260510014526 20 207 0.0 4.8 0.00 0.00 0.00 61 1010.1
20260510013105 20 207 3.2 11.3 0.00 0.00 0.00 60 1009.8
20260510011524 20 202 4.8 9.7 0.00 0.00 0.00 60 1009.5
20260510010047 21 200 4.8 11.3 0.00 0.00 0.00 59 1009.3
20260510004600 21 200 3.2 9.7 0.00 0.00 0.00 58 1009.1
20260510003037 21 200 3.2 8.0 0.00 0.00 0.00 57 1009.0
20260510001547 22 199 4.8 9.7 0.00 0.00 0.00 55 1008.7
20260510000021 22 198 4.8 12.9 0.00 0.00 0.00 53 1008.6
20260509234550 22 198 3.2 16.1 0.00 0.00 0.00 52 1008.7
20260509233023 23 200 3.2 11.3 0.00 0.00 0.00 51 1008.5
20260509231543 23 214 4.8 11.3 0.00 0.00 0.00 50 1008.5
20260509230003 23 217 4.8 11.3 0.00 0.00 0.00 50 1008.5
20260509224535 24 212 6.4 16.1 0.00 0.00 0.00 48 1008.4
20260509223052 24 212 6.4 16.1 0.00 0.00 0.00 48 1008.4
20260509221510 24 201 8.0 17.7 0.00 0.00 0.00 47 1008.4
20260509220042 23 221 6.4 17.7 0.00 0.00 0.00 49 1008.4
20260509214504 24 192 6.4 19.3 0.00 0.00 0.00 47 1008.4
20260509213039 25 205 9.7 22.5 0.00 0.00 0.00 44 1008.2
20260509211559 25 227 4.8 16.1 0.00 0.00 0.00 43 1008.3
20260509210015 25 165 8.0 19.3 0.00 0.00 0.00 45 1008.2
20260509204555 24 202 6.4 14.5 0.00 0.00 0.00 43 1008.2
20260509203038 25 279 8.0 17.7 0.00 0.00 0.00 42 1008.0
20260509201602 26 215 8.0 17.7 0.00 0.00 0.00 39 1008.1
20260509200033 26 184 6.4 19.3 0.00 0.00 0.00 41 1008.1
20260509194556 26 227 8.0 27.4 0.00 0.00 0.00 38 1008.4
20260509193015 25 221 8.0 20.9 0.00 0.00 0.00 40 1008.5
20260509191542 25 178 11.3 19.3 0.00 0.00 0.00 43 1008.7
20260509184550 25 207 6.4 19.3 0.00 0.00 0.00 43 1009.0
20260509183103 24 223 4.8 17.7 0.00 0.00 0.00 45 1009.3
20260509181527 24 207 8.0 16.1 0.00 0.00 0.00 46 1009.7
20260509180048 23 186 9.7 17.7 0.00 0.00 0.00 49 1010.1
20260509174517 22 238 3.2 17.7 0.00 0.00 0.00 52 1010.2
20260509173030 21 200 8.0 27.4 0.00 0.00 0.00 55 1010.5
20260509171555 22 229 6.4 16.1 0.00 0.00 0.00 54 1010.6
20260509170037 21 190 8.0 16.1 0.00 0.00 0.00 57 1010.7
20260509164554 21 239 4.8 11.3 0.00 0.00 0.00 57 1010.6
20260509163021 20 211 3.2 12.9 0.00 0.00 0.00 59 1010.7
20260509161542 19 194 6.4 17.7 0.00 0.00 0.00 59 1010.8
20260509160007 19 172 11.3 24.1 0.00 0.00 0.00 59 1011.0
20260509154543 18 188 6.4 16.1 0.00 0.00 0.00 61 1011.0
20260509153104 18 204 8.0 16.1 0.00 0.00 0.00 61 1011.2
20260509151523 18 209 8.0 16.1 0.00 0.00 0.00 60 1011.4
20260509150055 17 200 8.0 17.7 0.00 0.00 0.00 60 1011.3
20260509144528 17 171 6.4 17.7 0.00 0.00 0.00 61 1011.4
20260509143050 16 167 6.4 16.1 0.00 0.00 0.00 63 1011.2
20260509141509 16 171 6.4 16.1 0.00 0.00 0.00 63 1011.5
20260509140028 15 175 3.2 12.9 0.00 0.00 0.00 65 1011.8
20260509134542 15 200 3.2 8.0 0.00 0.00 0.00 65 1011.8
20260509133104 14 200 3.2 11.3 0.00 0.00 0.00 66 1011.9
20260509131535 13 203 3.2 16.1 0.00 0.00 0.00 66 1012.1
20260509130100 13 174 6.4 12.9 0.00 0.00 0.00 65 1012.1
20260509124529 13 173 6.4 11.3 0.00 0.00 0.00 65 1012.1
20260509123045 12 173 8.0 11.3 0.00 0.00 0.00 65 1012.1
20260509121515 12 172 1.6 6.4 0.00 0.00 0.00 65 1012.2
20260509120111 12 184 3.2 8.0 0.00 0.00 0.00 65 1012.0
20260509114514 12 183 3.2 8.0 0.00 0.00 0.00 66 1012.0
20260509113050 12 184 3.2 11.3 0.00 0.00 0.00 66 1012.0
20260509111504 11 183 6.4 11.3 0.00 0.00 0.00 66 1012.0
20260509110039 11 182 3.2 8.0 0.00 0.00 0.00 66 1011.9
20260509104553 11 182 1.6 8.0 0.00 0.00 0.00 66 1012.0
20260509103008 11 182 3.2 9.7 0.00 0.00 0.00 65 1012.0
20260509101544 11 182 4.8 9.7 0.00 0.00 0.00 64 1011.8
20260509100100 11 180 3.2 11.3 0.00 0.00 0.00 63 1011.9
20260509094536 12 178 3.2 8.0 0.00 0.00 0.00 63 1011.9
20260509093056 12 178 1.6 11.3 0.00 0.00 0.00 62 1011.9
20260509091510 12 178 3.2 12.9 0.00 0.00 0.00 61 1012.1
20260509090043 12 178 3.2 8.0 0.00 0.00 0.00 61 1012.0
20260509084502 12 178 4.8 12.9 0.00 0.00 0.00 61 1012.0
20260509083032 12 178 4.8 12.9 0.00 0.00 0.00 60 1012.2
20260509081557 12 177 6.4 14.5 0.00 0.00 0.00 59 1012.3
20260509080022 13 178 9.7 14.5 0.00 0.00 0.00 56 1012.3
20260509074540 13 179 8.0 12.9 0.00 0.00 0.00 55 1012.3
20260509073136 13 185 4.8 8.0 0.00 0.00 0.00 56 1012.5
20260509071510 13 184 4.8 11.3 0.00 0.00 0.00 55 1012.4
20260509070044 13 185 6.4 9.7 0.00 0.00 0.00 54 1012.9
20260509064502 13 192 3.2 9.7 0.00 0.00 0.00 54 1012.9
20260509063031 13 192 4.8 11.3 0.00 0.00 0.00 53 1013.0
20260509061539 13 192 3.2 9.7 0.00 0.00 0.00 53 1013.2
20260509060006 13 187 3.2 9.7 0.00 0.00 0.00 54 1013.3